GFSSW_500_temp_273.txt.gz
Temp
-7 -7 -7 -7 -7 -7 -7 -7 -7 -7 -7 -7 -7 -7 -7 -8 -8 -8 -8 -8 -8 -8 -8 -8 -9 -9 -9 -9 -9 -9 -9 -8 -8 -8 -9 -9 -9 -9 -9 -9 -8 -9 -9 -8 -8
-8 -8 -7 -7 -7 -7 -7 -7 -7 -7 -7 -7 -7 -7 -7 -7 -8 -8 -8 -8 -8 -8 -8 -8 -8 -8 -9 -9 -9 -9 -9 -9 -9 -9 -9 -9 -9 -9 -9 -10 -9 -8 -8 -8 -8
-8 -8 -8 -7 -7 -7 -7 -7 -7 -7 -7 -7 -7 -7 -7 -7 -8 -7 -8 -8 -8 -8 -8 -8 -8 -8 -9 -9 -9 -9 -9 -9 -9 -9 -9 -9 -9 -9 -9 -10 -9 -10 -8 -8 -8
-8 -8 -8 -7 -7 -7 -7 -7 -7 -7 -7 -7 -7 -7 -7 -7 -7 -8 -8 -8 -8 -8 -8 -8 -8 -8 -9 -9 -9 -9 -9 -10 -10 -10 -9 -10 -9 -9 -9 -8 -8 -10 -9 -9 -8
-8 -8 -8 -8 -7 -7 -7 -7 -7 -7 -7 -7 -7 -7 -7 -7 -7 -7 -7 -8 -8 -8 -8 -8 -8 -8 -9 -9 -9 -8 -9 -10 -10 -9 -9 -9 -9 -10 -9 -10 -9 -10 -9 -9 -9
-8 -8 -8 -8 -8 -7 -7 -7 -7 -7 -7 -7 -7 -7 -7 -7 -7 -7 -7 -7 -7 -8 -8 -8 -8 -8 -8 -9 -9 -9 -9 -9 -9 -10 -10 -9 -9 -9 -9 -10 -10 -9 -9 -9 -9
-8 -8 -8 -8 -8 -8 -7 -7 -7 -7 -7 -7 -7 -7 -7 -7 -7 -7 -7 -7 -7 -8 -8 -8 -8 -8 -8 -9 -9 -8 -9 -9 -8 -9 -9 -9 -10 -10 -10 -10 -10 -9 -9 -9 -9
-8 -8 -8 -8 -8 -7 -7 -7 -7 -7 -7 -7 -7 -7 -7 -7 -7 -7 -7 -7 -7 -7 -8 -8 -8 -8 -8 -8 -9 -8 -8 -10 -10 -9 -8 -8 -9 -10 -10 -10 -10 -10 -11 -10 -10
-9 -9 -8 -8 -8 -8 -8 -7 -7 -7 -7 -7 -7 -7 -6 -7 -7 -7 -7 -7 -7 -7 -8 -8 -8 -8 -8 -8 -9 -8 -9 -9 -9 -9 -10 -8 -9 -9 -10 -10 -10 -10 -10 -11 -10
-9 -9 -9 -9 -8 -8 -8 -8 -7 -7 -7 -7 -7 -7 -7 -7 -7 -7 -7 -7 -7 -8 -8 -8 -8 -8 -8 -8 -9 -9 -9 -9 -9 -10 -9 -8 -9 -10 -10 -10 -9 -10 -10 -10 -10
-10 -9 -9 -9 -9 -8 -8 -8 -8 -8 -8 -7 -7 -7 -7 -7 -7 -7 -7 -7 -7 -8 -8 -8 -8 -8 -8 -8 -10 -10 -10 -9 -9 -10 -10 -10 -10 -10 -10 -10 -10 -10 -10 -10 -10
-10 -10 -9 -9 -9 -9 -9 -8 -8 -8 -8 -8 -7 -7 -7 -7 -7 -7 -7 -7 -7 -8 -8 -8 -8 -8 -9 -8 -8 -8 -9 -10 -10 -10 -8 -9 -10 -10 -10 -10 -10 -10 -10 -9 -8
-10 -10 -10 -10 -9 -9 -9 -9 -9 -8 -8 -8 -8 -8 -7 -7 -7 -7 -8 -8 -8 -8 -8 -8 -9 -9 -8 -8 -8 -8 -8 -9 -10 -10 -9 -9 -10 -10 -10 -9 -9 -9 -9 -9 -10
-10 -10 -10 -10 -10 -10 -10 -9 -9 -9 -8 -9 -8 -8 -8 -8 -7 -7 -8 -8 -8 -8 -8 -8 -8 -7 -8 -8 -8 -8 -8 -8 -9 -9 -10 -10 -9 -9 -10 -9 -10 -9 -9 -9 -10
-11 -11 -10 -10 -10 -10 -10 -10 -10 -10 -9 -9 -8 -8 -8 -8 -8 -8 -8 -8 -8 -8 -8 -8 -8 -8 -8 -8 -8 -9 -8 -8 -9 -9 -10 -10 -10 -9 -10 -10 -9 -8 -9 -10 -10
-11 -11 -11 -11 -10 -10 -10 -10 -10 -10 -10 -9 -9 -9 -8 -8 -8 -8 -8 -8 -8 -8 -8 -8 -8 -8 -8 -8 -8 -8 -8 -9 -9 -9 -10 -10 -10 -9 -10 -11 -10 -8 -9 -9 -9
-11 -11 -11 -11 -11 -10 -10 -10 -10 -10 -10 -9 -9 -9 -9 -9 -9 -8 -8 -8 -8 -8 -8 -8 -8 -8 -8 -8 -8 -8 -8 -9 -10 -10 -10 -10 -10 -10 -10 -10 -10 -9 -9 -9 -10
-11 -11 -11 -12 -11 -11 -11 -11 -10 -10 -10 -9 -10 -10 -9 -9 -9 -9 -9 -8 -8 -8 -9 -8 -9 -8 -8 -8 -8 -8 -9 -10 -10 -9 -9 -10 -10 -10 -10 -10 -10 -10 -10 -10 -10
-11 -12 -12 -11 -12 -12 -11 -11 -10 -11 -10 -10 -10 -10 -10 -10 -9 -9 -9 -9 -9 -9 -9 -11 -8 -11 -8 -8 -9 -10 -9 -10 -11 -10 -10 -10 -11 -10 -10 -10 -10 -10 -10 -10 -10
-12 -12 -12 -12 -12 -12 -11 -10 -11 -11 -10 -10 -10 -10 -10 -10 -10 -10 -9 -9 -9 -9 -9 -10 -10 -11 -9 -9 -9 -9 -11 -10 -10 -11 -10 -10 -10 -10 -10 -10 -10 -10 -11 -11 -11
-12 -12 -11 -12 -12 -12 -11 -11 -12 -12 -11 -11 -11 -11 -10 -11 -10 -10 -10 -10 -9 -9 -10 -10 -9 -11 -9 -8 -9 -9 -9 -10 -11 -11 -11 -10 -10 -11 -11 -10 -10 -11 -11 -11 -11
-11 -12 -11 -12 -13 -12 -11 -11 -12 -12 -11 -11 -11 -11 -10 -11 -11 -10 -11 -10 -9 -10 -10 -10 -10 -11 -10 -9 -10 -10 -9 -10 -10 -10 -11 -11 -11 -11 -11 -11 -11 -11 -11 -11 -11
-12 -12 -11 -12 -12 -13 -12 -12 -12 -12 -12 -12 -11 -11 -11 -11 -11 -10 -11 -12 -10 -11 -10 -10 -10 -10 -12 -11 -9 -10 -10 -12 -12 -12 -11 -11 -11 -11 -12 -12 -11 -12 -11 -12 -12
-13 -12 -13 -13 -13 -14 -13 -12 -12 -13 -13 -12 -12 -12 -12 -11 -11 -11 -11 -13 -11 -11 -11 -11 -11 -10 -11 -12 -12 -11 -10 -10 -11 -11 -11 -12 -12 -11 -11 -12 -12 -13 -12 -12 -12
-14 -15 -15 -13 -16 -16 -15 -14 -13 -13 -14 -13 -12 -12 -12 -12 -11 -11 -12 -13 -11 -11 -11 -11 -11 -11 -11 -12 -12 -12 -12 -11 -12 -11 -12 -11 -11 -11 -11 -12 -12 -12 -12 -12 -12
-17 -18 -18 -19 -19 -18 -17 -16 -15 -14 -15 -14 -13 -13 -13 -12 -12 -12 -13 -14 -12 -12 -12 -12 -11 -12 -11 -12 -13 -12 -12 -12 -12 -13 -12 -12 -12 -12 -11 -12 -12 -13 -12 -12 -12
-19 -19 -20 -20 -20 -20 -19 -18 -17 -16 -15 -15 -14 -14 -13 -13 -13 -13 -14 -14 -14 -12 -13 -12 -12 -12 -13 -13 -13 -13 -13 -12 -12 -13 -13 -12 -12 -13 -12 -13 -13 -13 -13 -12 -12

GFSSW_500_temp_276.txt.gz
Temp
-8 -7 -7 -7 -7 -7 -7 -7 -7 -6 -6 -6 -6 -7 -7 -7 -7 -7 -8 -8 -8 -8 -8 -7 -8 -9 -9 -9 -8 -8 -8 -7 -8 -8 -7 -7 -7 -6 -8 -7 -8 -8 -7 -7 -7
-8 -8 -8 -7 -7 -7 -7 -7 -7 -7 -6 -7 -6 -7 -7 -7 -7 -7 -8 -8 -8 -8 -8 -8 -8 -8 -9 -9 -9 -8 -8 -8 -9 -9 -9 -7 -8 -8 -8 -9 -9 -7 -7 -8 -7
-8 -8 -8 -7 -7 -7 -7 -7 -7 -7 -6 -7 -6 -7 -7 -7 -7 -7 -8 -8 -8 -8 -8 -8 -8 -8 -8 -9 -9 -9 -8 -9 -9 -9 -9 -9 -9 -8 -8 -8 -9 -7 -8 -8 -7
-8 -8 -8 -7 -7 -7 -7 -7 -7 -7 -7 -6 -6 -6 -7 -7 -6 -7 -7 -8 -8 -8 -8 -8 -8 -8 -8 -8 -9 -9 -8 -9 -10 -9 -9 -8 -8 -9 -7 -9 -7 -8 -10 -9 -8
-8 -8 -8 -8 -7 -7 -7 -7 -7 -6 -6 -6 -6 -6 -6 -6 -6 -7 -7 -7 -8 -8 -8 -8 -8 -8 -8 -8 -9 -9 -8 -9 -10 -10 -8 -8 -8 -9 -9 -8 -8 -8 -8 -9 -8
-8 -8 -8 -8 -7 -7 -7 -7 -7 -6 -6 -6 -6 -6 -7 -7 -6 -7 -7 -7 -7 -8 -8 -8 -8 -8 -9 -9 -10 -10 -9 -8 -9 -10 -10 -8 -8 -9 -9 -8 -8 -8 -9 -8 -7
-8 -8 -8 -8 -8 -7 -7 -7 -7 -7 -6 -6 -6 -6 -6 -7 -7 -7 -7 -7 -7 -7 -8 -8 -8 -8 -9 -8 -9 -9 -9 -8 -8 -9 -9 -10 -8 -9 -9 -9 -8 -9 -9 -8 -7
-9 -8 -8 -8 -8 -8 -7 -7 -7 -7 -7 -6 -6 -6 -7 -6 -7 -7 -7 -7 -7 -7 -8 -8 -8 -8 -8 -8 -9 -8 -8 -8 -9 -8 -8 -7 -7 -8 -9 -9 -9 -10 -9 -9 -7
-9 -9 -9 -8 -8 -8 -8 -7 -7 -7 -7 -7 -7 -6 -7 -7 -7 -7 -7 -7 -7 -7 -8 -8 -8 -8 -8 -8 -8 -8 -8 -9 -9 -9 -9 -8 -7 -9 -9 -9 -9 -9 -9 -9 -9
-10 -9 -9 -9 -9 -8 -8 -8 -7 -7 -7 -7 -7 -7 -6 -7 -7 -7 -7 -7 -7 -7 -8 -8 -8 -8 -8 -8 -8 -9 -9 -9 -9 -9 -9 -9 -8 -9 -9 -9 -9 -9 -9 -10 -9
-10 -10 -9 -9 -9 -9 -9 -8 -8 -8 -7 -7 -7 -7 -7 -7 -7 -7 -7 -7 -7 -7 -8 -8 -8 -8 -8 -8 -8 -9 -9 -8 -8 -8 -9 -9 -9 -9 -9 -10 -9 -9 -9 -9 -9
-10 -10 -10 -9 -9 -9 -9 -9 -8 -8 -8 -8 -7 -7 -7 -7 -7 -7 -7 -7 -7 -8 -8 -8 -7 -8 -8 -8 -10 -10 -9 -9 -9 -8 -9 -9 -9 -9 -9 -9 -10 -10 -10 -9 -10
-10 -10 -10 -10 -10 -9 -9 -9 -9 -8 -8 -8 -8 -7 -7 -7 -7 -7 -7 -7 -7 -7 -8 -8 -8 -8 -9 -8 -9 -8 -8 -8 -9 -9 -9 -9 -8 -8 -9 -9 -9 -9 -9 -9 -9
-11 -10 -10 -10 -10 -10 -10 -10 -9 -9 -8 -8 -8 -8 -8 -8 -7 -7 -7 -8 -7 -7 -8 -7 -8 -10 -8 -8 -8 -8 -8 -8 -8 -10 -9 -9 -9 -9 -9 -9 -10 -8 -7 -9 -9
-11 -11 -11 -11 -10 -10 -10 -10 -10 -10 -9 -9 -8 -8 -8 -8 -8 -8 -8 -8 -8 -8 -8 -8 -8 -9 -8 -8 -8 -8 -9 -10 -9 -9 -10 -9 -9 -9 -9 -9 -9 -8 -7 -7 -8
-11 -11 -11 -11 -11 -10 -10 -10 -10 -10 -9 -10 -9 -9 -9 -8 -8 -8 -8 -8 -8 -8 -8 -8 -9 -10 -8 -8 -8 -8 -8 -9 -9 -9 -10 -8 -9 -9 -9 -10 -10 -8 -7 -8 -8
-11 -11 -11 -11 -11 -11 -11 -10 -10 -10 -10 -11 -10 -9 -9 -9 -9 -9 -8 -8 -8 -8 -8 -8 -8 -9 -8 -8 -8 -8 -9 -8 -9 -9 -8 -9 -10 -9 -9 -9 -9 -9 -9 -9 -9
-11 -11 -11 -11 -11 -11 -11 -11 -10 -10 -10 -11 -10 -9 -9 -10 -9 -9 -9 -8 -8 -8 -9 -9 -9 -8 -8 -8 -8 -8 -9 -8 -10 -9 -9 -9 -9 -9 -9 -9 -9 -9 -9 -9 -9
-11 -11 -11 -11 -11 -11 -11 -10 -10 -11 -11 -11 -12 -10 -10 -10 -10 -10 -9 -9 -9 -9 -9 -9 -9 -10 -9 -8 -9 -10 -8 -8 -10 -9 -10 -9 -10 -10 -10 -10 -10 -9 -10 -9 -10
-12 -11 -12 -11 -12 -11 -11 -10 -11 -11 -11 -11 -11 -10 -10 -11 -11 -10 -10 -9 -9 -9 -9 -9 -10 -11 -11 -11 -9 -9 -11 -10 -10 -10 -9 -9 -10 -10 -10 -10 -10 -10 -10 -10 -10
-12 -12 -11 -12 -12 -11 -11 -11 -11 -11 -12 -11 -11 -11 -11 -11 -12 -12 -11 -10 -10 -10 -9 -10 -11 -10 -11 -11 -9 -9 -9 -11 -11 -11 -10 -9 -10 -10 -10 -10 -10 -10 -10 -10 -10
-12 -12 -11 -12 -12 -11 -11 -11 -12 -11 -11 -12 -11 -11 -11 -11 -12 -13 -12 -12 -11 -10 -10 -9 -10 -10 -11 -11 -11 -11 -11 -10 -10 -10 -11 -10 -10 -10 -10 -10 -10 -11 -9 -9 -10
-12 -12 -12 -12 -11 -11 -11 -11 -11 -12 -12 -12 -11 -11 -12 -12 -12 -11 -12 -12 -12 -12 -10 -12 -11 -11 -11 -11 -12 -10 -10 -12 -11 -11 -11 -11 -10 -11 -11 -11 -11 -11 -11 -10 -11
-12 -12 -12 -11 -11 -11 -11 -11 -11 -11 -11 -12 -12 -12 -12 -12 -12 -12 -11 -11 -13 -13 -11 -12 -12 -11 -10 -10 -11 -10 -10 -12 -12 -12 -11 -11 -11 -11 -11 -10 -11 -11 -11 -10 -11
-13 -13 -12 -12 -12 -12 -12 -12 -11 -12 -13 -13 -13 -12 -12 -12 -12 -12 -12 -12 -13 -13 -11 -12 -10 -10 -10 -10 -11 -11 -10 -10 -11 -11 -12 -11 -11 -10 -11 -11 -11 -10 -11 -11 -12
-14 -13 -13 -14 -14 -13 -12 -12 -13 -13 -15 -14 -14 -13 -13 -12 -12 -12 -12 -12 -12 -13 -12 -12 -10 -11 -10 -10 -11 -11 -11 -11 -11 -11 -12 -12 -11 -10 -10 -11 -10 -11 -11 -11 -10
-15 -15 -15 -15 -15 -15 -14 -14 -15 -14 -15 -15 -15 -15 -15 -12 -13 -12 -12 -14 -13 -12 -12 -12 -11 -11 -11 -11 -11 -11 -11 -12 -11 -12 -11 -11 -11 -11 -11 -11 -10 -10 -11 -11 -11

GFSSW_500_temp_279.txt.gz
Temp
-7 -7 -7 -7 -7 -7 -6 -6 -6 -6 -6 -6 -6 -6 -6 -7 -7 -7 -8 -8 -8 -8 -8 -7 -8 -8 -8 -9 -8 -8 -7 -8 -9 -9 -9 -9 -9 -8 -7 -9 -8 -8 -9 -7 -7
-7 -7 -7 -7 -7 -7 -7 -7 -6 -6 -6 -6 -6 -6 -6 -6 -7 -7 -7 -8 -8 -8 -8 -8 -7 -8 -8 -9 -9 -8 -7 -8 -9 -9 -9 -8 -9 -8 -8 -9 -7 -8 -8 -6 -7
-8 -7 -7 -7 -7 -7 -7 -7 -7 -7 -6 -6 -6 -6 -6 -6 -7 -7 -7 -7 -8 -8 -8 -8 -7 -7 -8 -9 -9 -8 -8 -9 -8 -10 -9 -9 -9 -9 -9 -9 -8 -8 -9 -8 -6
-8 -7 -7 -7 -7 -7 -7 -7 -7 -7 -7 -6 -6 -6 -6 -6 -6 -7 -7 -7 -7 -8 -8 -8 -8 -8 -7 -7 -9 -9 -8 -8 -9 -10 -10 -9 -10 -10 -8 -8 -9 -7 -8 -8 -6
-8 -7 -7 -7 -7 -7 -7 -7 -7 -7 -7 -6 -6 -6 -6 -6 -6 -7 -7 -7 -7 -8 -8 -8 -8 -8 -8 -8 -9 -9 -8 -8 -9 -10 -10 -9 -10 -9 -9 -9 -8 -9 -8 -8 -7
-8 -8 -7 -7 -7 -7 -7 -7 -7 -7 -6 -6 -6 -6 -6 -6 -6 -7 -6 -7 -7 -7 -8 -8 -8 -8 -8 -8 -8 -9 -9 -9 -9 -8 -10 -10 -9 -9 -9 -8 -8 -9 -7 -7 -7
-8 -8 -8 -8 -7 -7 -7 -7 -7 -7 -6 -6 -6 -6 -6 -6 -6 -7 -7 -7 -7 -7 -8 -8 -8 -8 -7 -8 -8 -7 -8 -8 -8 -8 -8 -8 -9 -10 -9 -8 -9 -9 -9 -7 -8
-9 -9 -9 -8 -8 -8 -7 -7 -7 -7 -6 -6 -6 -6 -6 -6 -6 -7 -7 -7 -7 -7 -7 -8 -8 -8 -8 -8 -7 -7 -7 -7 -8 -8 -8 -9 -7 -8 -9 -9 -10 -9 -9 -10 -9
-9 -9 -9 -9 -8 -8 -8 -7 -7 -7 -7 -6 -6 -6 -6 -6 -7 -6 -7 -7 -7 -7 -7 -7 -7 -8 -8 -8 -8 -7 -8 -8 -8 -9 -9 -8 -8 -8 -9 -9 -10 -10 -10 -10 -10
-9 -9 -9 -9 -9 -8 -8 -8 -7 -7 -7 -7 -6 -6 -6 -6 -6 -6 -6 -7 -7 -7 -7 -7 -7 -7 -8 -8 -7 -8 -8 -9 -9 -9 -9 -9 -8 -8 -9 -9 -9 -9 -9 -9 -10
-9 -9 -9 -9 -9 -9 -9 -8 -8 -7 -7 -7 -6 -7 -6 -6 -7 -7 -7 -7 -7 -7 -7 -7 -7 -7 -8 -8 -8 -8 -10 -10 -9 -9 -9 -9 -8 -8 -9 -10 -10 -10 -10 -10 -10
-10 -9 -9 -9 -9 -9 -9 -9 -9 -8 -8 -7 -7 -7 -6 -7 -7 -7 -7 -7 -7 -7 -7 -7 -7 -7 -8 -8 -8 -8 -10 -9 -9 -9 -9 -9 -9 -8 -9 -9 -10 -10 -10 -10 -9
-10 -10 -10 -10 -9 -9 -9 -9 -9 -9 -8 -8 -8 -7 -7 -7 -7 -7 -7 -7 -7 -7 -7 -7 -8 -8 -8 -8 -8 -9 -8 -8 -9 -9 -9 -9 -9 -8 -8 -9 -9 -10 -9 -9 -9
-10 -10 -10 -10 -10 -9 -9 -9 -9 -9 -8 -9 -8 -8 -8 -8 -7 -8 -7 -7 -7 -7 -7 -7 -8 -8 -8 -8 -9 -8 -8 -8 -8 -8 -9 -9 -9 -8 -8 -9 -9 -9 -9 -8 -8
-11 -11 -10 -10 -10 -10 -10 -10 -9 -9 -9 -9 -8 -9 -8 -8 -8 -8 -8 -8 -8 -8 -8 -7 -8 -8 -8 -7 -9 -8 -8 -8 -9 -9 -8 -8 -8 -8 -9 -9 -9 -9 -8 -8 -8
-11 -11 -11 -11 -11 -11 -11 -10 -10 -10 -9 -10 -9 -9 -9 -9 -9 -8 -8 -8 -8 -8 -8 -8 -8 -8 -8 -8 -8 -9 -9 -9 -8 -8 -8 -7 -8 -7 -8 -9 -9 -9 -8 -9 -9
-11 -11 -11 -11 -11 -11 -11 -11 -10 -10 -11 -11 -11 -10 -10 -9 -9 -9 -9 -8 -8 -8 -8 -8 -8 -8 -8 -8 -10 -8 -9 -9 -8 -9 -8 -9 -9 -8 -8 -9 -9 -9 -8 -9 -8
-11 -11 -11 -11 -10 -11 -11 -11 -10 -10 -11 -12 -12 -11 -10 -10 -9 -10 -9 -8 -9 -8 -9 -8 -8 -8 -8 -9 -9 -9 -9 -8 -8 -8 -10 -10 -10 -8 -9 -9 -9 -9 -9 -9 -9
-11 -11 -11 -11 -11 -11 -11 -10 -10 -11 -12 -12 -12 -11 -11 -10 -10 -10 -10 -9 -9 -9 -9 -9 -8 -9 -10 -10 -10 -10 -9 -9 -10 -9 -10 -10 -10 -10 -10 -9 -9 -9 -9 -9 -9
-11 -11 -11 -11 -11 -11 -11 -10 -10 -11 -12 -11 -11 -11 -11 -12 -13 -12 -10 -10 -10 -9 -10 -9 -9 -9 -10 -11 -11 -10 -10 -10 -10 -10 -10 -9 -10 -10 -10 -10 -10 -9 -9 -9 -10
-12 -12 -11 -11 -12 -11 -11 -11 -11 -11 -12 -12 -12 -12 -11 -11 -12 -12 -12 -12 -11 -10 -10 -10 -10 -9 -11 -11 -11 -11 -11 -10 -10 -11 -10 -9 -10 -11 -9 -9 -10 -9 -10 -10 -9
-12 -12 -12 -12 -12 -12 -11 -11 -11 -11 -12 -11 -11 -11 -11 -12 -12 -11 -10 -11 -12 -12 -11 -10 -10 -10 -10 -11 -11 -11 -11 -11 -10 -10 -11 -11 -10 -10 -9 -9 -9 -9 -10 -10 -10
-13 -13 -12 -12 -12 -12 -11 -11 -11 -11 -11 -12 -11 -11 -12 -11 -12 -12 -12 -12 -12 -12 -12 -12 -11 -11 -11 -11 -11 -11 -11 -10 -11 -11 -10 -11 -11 -11 -11 -10 -10 -9 -9 -10 -10
-13 -14 -13 -12 -12 -12 -12 -11 -11 -11 -12 -11 -11 -12 -11 -11 -12 -11 -12 -12 -12 -11 -13 -13 -12 -11 -10 -10 -11 -11 -12 -10 -11 -11 -11 -10 -11 -11 -11 -11 -10 -9 -9 -11 -11
-14 -14 -13 -13 -13 -13 -12 -12 -12 -11 -12 -12 -12 -12 -12 -12 -11 -11 -11 -13 -12 -12 -13 -13 -12 -12 -11 -10 -11 -11 -12 -11 -11 -11 -11 -10 -11 -11 -11 -11 -11 -10 -10 -11 -11
-14 -13 -13 -14 -14 -13 -13 -13 -13 -12 -12 -12 -12 -13 -12 -11 -11 -11 -12 -12 -13 -12 -13 -13 -12 -12 -12 -10 -10 -12 -11 -10 -11 -11 -12 -12 -11 -11 -11 -11 -11 -11 -10 -11 -12
-14 -14 -15 -14 -14 -13 -13 -13 -13 -13 -12 -12 -12 -12 -11 -12 -12 -11 -12 -12 -13 -13 -13 -12 -12 -12 -11 -11 -11 -12 -11 -10 -10 -11 -11 -11 -11 -11 -11 -11 -11 -11 -11 -10 -10

GFSSW_500_temp_282.txt.gz
Temp
-7 -7 -7 -7 -6 -6 -6 -6 -6 -6 -6 -6 -6 -6 -6 -6 -7 -7 -7 -7 -8 -8 -8 -8 -8 -8 -9 -9 -9 -8 -8 -9 -9 -9 -8 -8 -8 -9 -9 -8 -8 -9 -8 -9 -8
-7 -7 -7 -7 -7 -7 -7 -6 -6 -6 -6 -6 -6 -6 -6 -6 -7 -7 -7 -7 -7 -8 -8 -8 -8 -7 -8 -9 -9 -8 -8 -9 -10 -9 -9 -9 -10 -9 -10 -10 -9 -9 -9 -8 -8
-7 -7 -7 -7 -7 -7 -7 -6 -6 -6 -6 -6 -6 -6 -6 -6 -6 -6 -7 -7 -7 -8 -8 -8 -8 -8 -8 -9 -9 -9 -8 -10 -10 -9 -9 -10 -10 -10 -10 -9 -9 -8 -8 -8 -8
-7 -7 -7 -7 -7 -7 -7 -7 -6 -6 -6 -6 -6 -6 -6 -6 -6 -7 -7 -7 -7 -7 -8 -8 -8 -8 -8 -8 -9 -9 -8 -10 -9 -8 -8 -10 -10 -10 -9 -9 -10 -9 -8 -8 -8
-7 -7 -7 -7 -7 -7 -7 -7 -7 -6 -6 -6 -6 -6 -6 -6 -6 -6 -7 -7 -7 -7 -8 -7 -8 -8 -8 -9 -9 -9 -9 -9 -9 -8 -8 -9 -9 -10 -10 -9 -9 -9 -8 -9 -8
-8 -8 -7 -7 -7 -7 -7 -7 -7 -6 -6 -6 -6 -6 -6 -6 -6 -7 -6 -7 -7 -7 -8 -8 -8 -8 -8 -8 -8 -9 -9 -9 -9 -8 -9 -9 -9 -9 -9 -9 -9 -9 -8 -9 -9
-8 -8 -8 -8 -7 -7 -7 -7 -7 -7 -6 -6 -6 -6 -6 -5 -6 -7 -6 -7 -7 -7 -7 -8 -8 -8 -7 -8 -8 -7 -8 -8 -9 -8 -9 -9 -9 -8 -9 -10 -9 -9 -8 -10 -9
-9 -9 -9 -8 -8 -7 -7 -7 -7 -7 -6 -6 -6 -6 -6 -5 -6 -7 -6 -7 -7 -7 -7 -7 -7 -8 -8 -8 -8 -7 -7 -7 -8 -8 -8 -9 -9 -8 -9 -9 -10 -10 -10 -10 -8
-9 -9 -9 -9 -9 -8 -8 -7 -7 -7 -7 -6 -6 -6 -6 -6 -6 -7 -7 -7 -7 -7 -7 -7 -7 -7 -8 -8 -8 -8 -8 -8 -9 -9 -9 -9 -9 -9 -9 -9 -10 -10 -10 -10 -9
-9 -9 -9 -9 -9 -9 -8 -8 -8 -7 -7 -7 -7 -6 -6 -6 -6 -6 -7 -7 -7 -7 -7 -7 -7 -7 -7 -7 -8 -9 -9 -8 -9 -9 -9 -9 -9 -9 -9 -10 -10 -9 -10 -10 -10
-9 -9 -9 -9 -9 -9 -9 -9 -8 -8 -7 -7 -7 -7 -7 -6 -7 -6 -6 -7 -7 -7 -7 -7 -7 -7 -8 -8 -9 -9 -9 -8 -8 -10 -9 -9 -9 -9 -9 -10 -10 -10 -10 -10 -10
-9 -10 -9 -9 -9 -9 -8 -9 -9 -8 -8 -8 -7 -8 -7 -7 -7 -7 -7 -6 -7 -7 -7 -6 -7 -8 -8 -7 -8 -8 -9 -8 -8 -10 -9 -9 -10 -9 -9 -9 -10 -10 -10 -10 -10
-10 -10 -10 -10 -9 -9 -9 -9 -8 -8 -9 -9 -8 -8 -7 -7 -7 -7 -7 -7 -7 -7 -7 -7 -8 -7 -8 -8 -8 -8 -8 -8 -8 -9 -9 -9 -10 -10 -10 -9 -9 -9 -10 -10 -10
-10 -10 -10 -10 -10 -10 -10 -9 -9 -8 -8 -9 -9 -8 -8 -8 -8 -8 -7 -7 -7 -7 -7 -7 -8 -7 -7 -7 -7 -8 -8 -8 -9 -9 -9 -10 -9 -9 -9 -10 -9 -10 -10 -9 -9
-10 -10 -10 -10 -10 -10 -10 -10 -10 -9 -9 -9 -9 -9 -9 -8 -8 -8 -8 -8 -8 -8 -7 -8 -8 -8 -8 -8 -8 -7 -8 -8 -9 -9 -9 -10 -9 -8 -9 -9 -9 -10 -10 -9 -9
-10 -10 -10 -11 -10 -10 -10 -10 -10 -10 -10 -10 -10 -10 -10 -9 -9 -9 -8 -8 -8 -8 -7 -8 -8 -7 -8 -9 -8 -8 -8 -8 -8 -8 -8 -8 -9 -8 -8 -8 -9 -9 -10 -10 -9
-10 -10 -10 -10 -10 -10 -10 -10 -10 -10 -11 -11 -10 -9 -9 -10 -10 -9 -9 -9 -9 -8 -8 -8 -8 -8 -8 -7 -8 -8 -8 -8 -8 -8 -7 -9 -9 -9 -9 -9 -9 -9 -10 -9 -10
-10 -11 -11 -10 -10 -10 -10 -10 -10 -10 -11 -11 -11 -10 -10 -9 -10 -10 -10 -9 -9 -9 -9 -8 -8 -9 -8 -8 -8 -8 -9 -9 -8 -8 -8 -10 -9 -8 -9 -8 -8 -9 -10 -10 -10
-11 -11 -11 -11 -10 -11 -11 -10 -10 -11 -11 -11 -11 -11 -11 -11 -10 -11 -10 -10 -10 -10 -9 -9 -8 -9 -9 -10 -10 -10 -9 -9 -10 -9 -8 -9 -9 -8 -8 -9 -8 -9 -9 -10 -10
-11 -11 -11 -11 -11 -11 -11 -10 -11 -11 -12 -11 -12 -12 -12 -11 -11 -10 -10 -10 -10 -10 -10 -10 -9 -9 -10 -10 -10 -11 -11 -11 -10 -9 -9 -8 -9 -8 -8 -8 -9 -10 -10 -10 -10
-12 -11 -11 -11 -11 -11 -11 -11 -11 -12 -11 -11 -11 -11 -12 -13 -12 -11 -10 -10 -11 -11 -11 -11 -11 -10 -10 -10 -10 -11 -10 -12 -11 -10 -10 -8 -9 -10 -10 -10 -10 -11 -11 -11 -11
-12 -12 -12 -12 -12 -11 -12 -12 -11 -11 -12 -11 -11 -11 -12 -12 -12 -11 -10 -11 -11 -11 -11 -10 -12 -10 -10 -10 -11 -11 -11 -11 -12 -11 -10 -9 -8 -10 -10 -10 -10 -10 -10 -10 -10
-13 -12 -12 -12 -12 -12 -12 -12 -12 -12 -12 -12 -11 -11 -11 -12 -11 -11 -11 -12 -12 -12 -11 -13 -11 -12 -10 -11 -11 -11 -11 -11 -11 -12 -11 -11 -9 -10 -10 -10 -10 -9 -9 -9 -10
-13 -13 -12 -12 -13 -12 -12 -12 -12 -12 -12 -12 -12 -11 -12 -11 -11 -10 -11 -13 -13 -13 -13 -13 -12 -10 -9 -10 -11 -12 -12 -11 -10 -12 -11 -10 -10 -10 -10 -10 -10 -9 -9 -10 -10
-13 -13 -13 -12 -13 -13 -13 -13 -13 -13 -13 -13 -12 -12 -11 -11 -11 -11 -11 -11 -13 -13 -13 -13 -11 -11 -10 -10 -11 -11 -12 -11 -11 -12 -11 -10 -11 -10 -10 -11 -10 -10 -10 -10 -10
-14 -14 -14 -14 -14 -13 -13 -13 -13 -13 -13 -12 -12 -12 -12 -11 -11 -11 -11 -11 -12 -13 -13 -13 -12 -12 -11 -10 -11 -12 -12 -12 -12 -11 -11 -11 -10 -10 -10 -10 -10 -10 -10 -10 -11
-15 -15 -14 -14 -14 -13 -13 -13 -13 -13 -13 -12 -12 -12 -12 -12 -12 -11 -11 -11 -11 -12 -13 -13 -12 -13 -12 -11 -13 -12 -11 -11 -12 -11 -11 -11 -10 -11 -11 -10 -10 -10 -10 -11 -11

GFSSW_500_temp_285.txt.gz
Temp
-7 -7 -7 -7 -7 -7 -6 -6 -6 -6 -6 -6 -6 -6 -6 -6 -7 -7 -6 -7 -8 -8 -8 -8 -8 -8 -9 -9 -9 -9 -8 -10 -10 -10 -10 -9 -8 -9 -9 -9 -8 -7 -8 -8 -8
-7 -7 -7 -7 -7 -7 -6 -6 -6 -6 -6 -6 -6 -6 -6 -6 -6 -6 -7 -7 -8 -8 -8 -8 -8 -8 -8 -9 -9 -9 -8 -10 -10 -10 -9 -8 -8 -9 -9 -9 -10 -8 -8 -8 -8
-7 -7 -7 -7 -7 -7 -7 -6 -6 -6 -6 -6 -6 -6 -6 -6 -6 -6 -7 -7 -8 -8 -8 -8 -8 -8 -8 -9 -9 -9 -8 -10 -10 -10 -9 -9 -8 -8 -8 -9 -9 -8 -8 -8 -9
-7 -7 -7 -7 -7 -7 -7 -7 -6 -6 -6 -6 -6 -6 -6 -6 -6 -6 -7 -7 -7 -8 -8 -8 -8 -8 -8 -9 -9 -9 -9 -10 -10 -10 -9 -9 -8 -8 -8 -9 -9 -10 -9 -9 -9
-7 -7 -7 -7 -7 -7 -7 -7 -7 -6 -6 -6 -6 -6 -6 -6 -6 -6 -7 -7 -7 -7 -8 -8 -8 -8 -8 -9 -8 -9 -9 -10 -10 -10 -10 -9 -8 -8 -8 -9 -9 -10 -9 -9 -8
-8 -8 -7 -7 -7 -7 -7 -7 -7 -7 -6 -6 -6 -6 -6 -6 -6 -6 -6 -7 -7 -7 -7 -8 -8 -8 -8 -8 -7 -8 -9 -9 -10 -10 -10 -9 -8 -8 -9 -9 -9 -9 -9 -8 -7
-8 -8 -8 -8 -7 -7 -7 -7 -7 -7 -7 -6 -6 -6 -6 -6 -6 -7 -6 -7 -7 -7 -8 -7 -8 -8 -8 -8 -8 -8 -8 -9 -10 -10 -10 -9 -8 -8 -9 -9 -9 -9 -9 -8 -8
-9 -9 -8 -8 -8 -8 -7 -7 -7 -7 -7 -7 -7 -7 -6 -6 -7 -7 -7 -7 -7 -7 -8 -7 -7 -7 -8 -8 -8 -8 -8 -9 -9 -10 -10 -10 -9 -9 -10 -9 -9 -10 -8 -8 -8
-9 -9 -9 -9 -9 -8 -8 -8 -7 -7 -7 -7 -7 -7 -6 -6 -6 -6 -6 -7 -7 -7 -7 -7 -7 -7 -8 -8 -8 -8 -9 -9 -9 -9 -10 -10 -9 -10 -9 -9 -10 -9 -9 -8 -9
-9 -9 -9 -9 -8 -8 -8 -8 -8 -8 -8 -7 -7 -7 -7 -6 -7 -7 -7 -6 -7 -7 -7 -7 -7 -7 -8 -8 -8 -9 -9 -9 -10 -10 -10 -10 -9 -9 -9 -9 -10 -9 -9 -9 -10
-9 -9 -9 -9 -9 -9 -8 -8 -8 -8 -8 -8 -7 -7 -7 -7 -7 -7 -7 -7 -7 -7 -7 -7 -7 -8 -8 -8 -9 -9 -9 -10 -10 -10 -9 -9 -9 -9 -9 -10 -10 -10 -9 -10 -9
-9 -9 -9 -9 -9 -9 -9 -8 -8 -8 -9 -9 -8 -8 -7 -7 -7 -7 -7 -7 -7 -7 -7 -7 -7 -8 -8 -8 -8 -8 -9 -9 -10 -10 -9 -9 -9 -10 -10 -10 -10 -10 -10 -10 -9
-9 -9 -9 -9 -9 -9 -9 -9 -9 -8 -8 -9 -9 -9 -7 -8 -8 -7 -7 -7 -7 -7 -7 -7 -8 -8 -7 -8 -8 -8 -8 -9 -9 -9 -9 -8 -9 -10 -10 -10 -10 -10 -10 -10 -10
-10 -10 -9 -9 -9 -9 -9 -9 -9 -9 -9 -10 -9 -9 -9 -8 -8 -8 -7 -8 -7 -7 -7 -7 -8 -8 -8 -8 -8 -8 -9 -8 -9 -9 -9 -9 -9 -10 -9 -9 -9 -10 -10 -10 -10
-10 -10 -10 -10 -9 -10 -10 -10 -9 -9 -10 -9 -9 -9 -9 -9 -9 -8 -8 -7 -8 -8 -8 -8 -9 -8 -8 -8 -8 -8 -9 -8 -8 -9 -9 -10 -9 -9 -9 -9 -9 -10 -9 -10 -10
-9 -10 -10 -10 -10 -10 -10 -10 -10 -10 -10 -10 -10 -10 -9 -9 -9 -9 -9 -8 -8 -8 -8 -8 -8 -8 -8 -8 -8 -9 -9 -8 -8 -9 -9 -9 -10 -9 -9 -9 -9 -9 -9 -10 -10
-9 -10 -10 -10 -10 -10 -10 -10 -10 -10 -11 -10 -10 -10 -10 -10 -9 -9 -9 -9 -9 -8 -8 -8 -8 -8 -8 -8 -8 -8 -9 -9 -8 -8 -8 -9 -9 -9 -9 -9 -9 -9 -10 -10 -10
-10 -10 -10 -9 -10 -10 -10 -10 -10 -11 -11 -10 -10 -10 -11 -10 -10 -10 -9 -9 -9 -9 -9 -8 -9 -9 -9 -9 -9 -9 -9 -9 -8 -8 -8 -9 -8 -9 -9 -9 -9 -9 -8 -9 -10
-10 -10 -10 -10 -10 -10 -10 -10 -11 -11 -11 -11 -11 -11 -11 -11 -11 -10 -10 -10 -10 -10 -10 -9 -9 -10 -9 -9 -10 -9 -9 -9 -9 -8 -8 -8 -8 -8 -8 -9 -9 -9 -9 -10 -10
-11 -11 -11 -10 -11 -10 -10 -10 -11 -11 -11 -11 -11 -10 -10 -11 -10 -11 -11 -10 -10 -10 -10 -10 -9 -10 -10 -9 -9 -10 -10 -9 -9 -8 -8 -8 -8 -8 -8 -8 -9 -9 -10 -9 -11
-11 -11 -11 -11 -11 -11 -11 -11 -11 -11 -11 -11 -11 -11 -11 -11 -10 -10 -11 -11 -11 -11 -10 -10 -9 -10 -10 -10 -10 -10 -9 -10 -9 -8 -8 -8 -8 -8 -8 -9 -9 -9 -9 -10 -11
-12 -11 -11 -11 -11 -11 -11 -11 -11 -12 -11 -11 -11 -11 -12 -11 -11 -10 -10 -12 -11 -12 -11 -11 -10 -10 -9 -10 -10 -11 -11 -10 -10 -9 -8 -8 -7 -9 -9 -9 -9 -10 -11 -11 -11
-12 -12 -12 -12 -11 -11 -12 -11 -11 -12 -12 -11 -11 -11 -12 -12 -11 -11 -11 -12 -12 -12 -12 -12 -11 -10 -10 -10 -10 -10 -11 -11 -10 -9 -9 -9 -8 -9 -10 -10 -10 -10 -11 -11 -11
-12 -12 -12 -12 -13 -12 -12 -12 -12 -12 -13 -12 -11 -12 -11 -12 -12 -11 -11 -12 -12 -12 -13 -12 -12 -11 -10 -10 -11 -10 -11 -12 -11 -11 -10 -9 -9 -10 -10 -10 -10 -10 -11 -11 -11
-13 -13 -12 -12 -13 -13 -13 -12 -13 -13 -13 -13 -12 -12 -12 -12 -12 -12 -11 -12 -12 -13 -13 -13 -12 -12 -11 -11 -11 -11 -11 -12 -12 -11 -11 -9 -11 -10 -11 -10 -10 -11 -11 -12 -12
-14 -14 -14 -13 -13 -14 -13 -13 -13 -13 -13 -13 -13 -12 -12 -12 -12 -12 -12 -11 -12 -13 -14 -13 -13 -12 -11 -12 -11 -11 -11 -11 -12 -12 -11 -11 -10 -10 -10 -10 -10 -11 -11 -12 -11
-15 -15 -15 -14 -14 -14 -14 -14 -14 -13 -13 -13 -13 -13 -13 -12 -12 -12 -12 -12 -12 -12 -13 -13 -13 -13 -11 -13 -12 -11 -11 -11 -10 -12 -12 -11 -10 -10 -11 -10 -10 -11 -11 -11 -11

GFSSW_500_temp_288.txt.gz
Temp
-7 -7 -7 -6 -6 -6 -6 -6 -6 -6 -6 -6 -6 -6 -6 -6 -7 -7 -6 -7 -7 -7 -7 -8 -8 -8 -8 -8 -9 -10 -9 -10 -11 -10 -10 -10 -9 -9 -8 -8 -8 -9 -10 -9 -8
-7 -7 -7 -7 -7 -7 -7 -7 -6 -6 -6 -6 -6 -7 -7 -7 -6 -6 -7 -7 -7 -7 -8 -8 -8 -8 -8 -8 -9 -10 -9 -10 -11 -10 -10 -10 -9 -9 -8 -7 -7 -8 -8 -9 -9
-7 -7 -7 -7 -7 -7 -7 -7 -7 -7 -6 -6 -6 -7 -7 -7 -6 -6 -7 -7 -7 -7 -8 -8 -8 -8 -8 -8 -8 -10 -10 -10 -11 -11 -10 -10 -9 -9 -8 -8 -8 -8 -9 -9 -9
-7 -7 -7 -7 -7 -7 -7 -7 -7 -7 -7 -6 -6 -6 -6 -6 -6 -6 -7 -7 -7 -7 -8 -8 -8 -8 -8 -8 -8 -9 -10 -10 -11 -11 -11 -10 -9 -9 -8 -8 -8 -9 -9 -10 -9
-7 -7 -7 -7 -7 -7 -7 -7 -7 -7 -7 -7 -7 -7 -7 -7 -6 -7 -7 -7 -7 -7 -8 -8 -8 -8 -8 -8 -8 -8 -10 -10 -11 -10 -10 -10 -10 -9 -9 -8 -8 -9 -10 -9 -10
-8 -8 -7 -7 -7 -7 -7 -7 -7 -7 -7 -7 -7 -7 -7 -7 -6 -7 -7 -7 -7 -7 -8 -8 -8 -8 -8 -8 -8 -8 -9 -9 -10 -11 -10 -10 -10 -10 -9 -9 -8 -9 -10 -10 -10
-8 -8 -8 -8 -7 -7 -7 -7 -7 -7 -7 -7 -7 -7 -7 -6 -7 -7 -7 -7 -7 -7 -7 -7 -7 -8 -8 -8 -8 -8 -8 -9 -10 -10 -11 -11 -10 -10 -9 -9 -9 -9 -10 -10 -10
-8 -8 -8 -8 -8 -8 -8 -8 -8 -7 -7 -7 -7 -7 -7 -6 -7 -7 -7 -7 -7 -7 -7 -7 -7 -8 -8 -8 -8 -8 -9 -9 -10 -10 -11 -11 -10 -10 -10 -9 -9 -9 -10 -9 -9
-9 -9 -9 -9 -8 -8 -8 -8 -8 -8 -8 -7 -7 -7 -7 -7 -7 -7 -7 -6 -7 -7 -7 -7 -7 -7 -8 -8 -8 -9 -9 -9 -10 -10 -10 -10 -10 -10 -10 -10 -9 -9 -9 -9 -9
-9 -9 -9 -9 -9 -9 -9 -8 -8 -8 -8 -8 -8 -7 -7 -7 -7 -7 -7 -7 -7 -7 -7 -7 -7 -7 -8 -8 -9 -9 -9 -9 -9 -10 -10 -10 -10 -10 -10 -9 -8 -9 -9 -9 -9
-9 -9 -9 -9 -9 -9 -9 -9 -8 -8 -8 -8 -8 -8 -8 -7 -7 -7 -7 -7 -7 -7 -7 -7 -7 -8 -8 -8 -8 -9 -9 -9 -9 -10 -9 -10 -10 -10 -10 -10 -9 -9 -10 -10 -10
-9 -9 -8 -9 -9 -9 -9 -9 -9 -9 -9 -9 -9 -9 -8 -8 -8 -8 -8 -7 -7 -8 -8 -7 -8 -8 -8 -8 -8 -8 -8 -9 -9 -10 -9 -10 -10 -10 -10 -10 -10 -10 -10 -10 -9
-9 -9 -9 -9 -9 -9 -9 -9 -9 -9 -9 -10 -9 -9 -9 -8 -8 -8 -8 -8 -7 -8 -7 -8 -8 -9 -8 -8 -8 -8 -9 -10 -9 -10 -9 -9 -10 -10 -10 -10 -10 -10 -10 -10 -9
-9 -9 -9 -9 -9 -9 -9 -9 -9 -9 -9 -9 -10 -9 -9 -9 -9 -8 -8 -8 -8 -8 -8 -7 -8 -8 -8 -8 -8 -8 -9 -10 -9 -9 -9 -9 -9 -9 -9 -9 -10 -10 -9 -9 -9
-9 -9 -9 -9 -9 -10 -9 -9 -9 -9 -9 -9 -9 -9 -9 -9 -9 -9 -8 -8 -8 -8 -8 -8 -9 -9 -8 -9 -8 -9 -9 -9 -9 -9 -9 -10 -9 -9 -9 -9 -10 -10 -10 -10 -10
-9 -9 -9 -9 -9 -9 -10 -10 -9 -10 -10 -10 -9 -10 -10 -10 -9 -9 -9 -9 -9 -8 -8 -8 -9 -8 -8 -9 -8 -9 -9 -9 -9 -9 -9 -9 -9 -8 -9 -9 -9 -10 -10 -10 -10
-9 -9 -9 -9 -9 -9 -9 -10 -10 -10 -10 -10 -10 -10 -10 -10 -10 -10 -10 -9 -9 -9 -9 -9 -9 -9 -9 -9 -9 -9 -9 -9 -9 -8 -8 -9 -9 -8 -8 -9 -9 -9 -9 -9 -10
-10 -10 -10 -9 -10 -9 -9 -10 -10 -10 -10 -10 -10 -10 -10 -10 -10 -10 -10 -10 -10 -9 -9 -9 -9 -10 -9 -9 -10 -9 -10 -9 -9 -9 -9 -9 -9 -8 -9 -9 -9 -9 -9 -9 -9
-10 -10 -10 -10 -10 -10 -9 -9 -10 -10 -10 -10 -10 -10 -11 -11 -10 -10 -10 -11 -10 -10 -9 -9 -9 -10 -10 -10 -10 -10 -10 -10 -10 -9 -9 -9 -9 -8 -9 -9 -9 -9 -9 -9 -9
-10 -10 -10 -11 -10 -10 -10 -10 -10 -10 -10 -11 -10 -10 -10 -11 -11 -11 -11 -11 -11 -11 -10 -9 -9 -10 -10 -10 -10 -10 -11 -11 -10 -10 -9 -9 -9 -9 -9 -9 -9 -9 -10 -10 -10
-11 -11 -11 -11 -11 -11 -10 -10 -11 -10 -11 -11 -11 -11 -10 -10 -10 -11 -12 -11 -11 -11 -11 -11 -10 -11 -10 -9 -9 -10 -10 -11 -11 -11 -9 -9 -8 -9 -9 -9 -10 -10 -10 -10 -10
-11 -11 -11 -11 -11 -11 -11 -11 -11 -11 -11 -11 -11 -11 -11 -11 -10 -11 -11 -11 -11 -12 -12 -11 -11 -11 -11 -10 -10 -10 -10 -10 -10 -10 -10 -9 -8 -9 -10 -10 -10 -10 -10 -10 -10
-11 -12 -11 -12 -11 -12 -11 -12 -11 -12 -11 -11 -11 -11 -11 -11 -11 -11 -11 -11 -11 -12 -12 -12 -12 -11 -11 -12 -11 -11 -10 -10 -10 -10 -9 -9 -8 -9 -11 -11 -11 -11 -11 -11 -11
-11 -11 -12 -12 -12 -12 -12 -12 -12 -12 -12 -12 -12 -12 -12 -11 -12 -11 -11 -12 -12 -12 -12 -12 -12 -11 -11 -12 -12 -12 -11 -11 -11 -10 -10 -9 -9 -9 -10 -11 -11 -11 -11 -11 -11
-12 -12 -12 -12 -12 -13 -12 -12 -12 -13 -13 -13 -12 -12 -12 -12 -12 -12 -12 -12 -13 -12 -12 -12 -11 -12 -12 -12 -12 -12 -12 -11 -11 -11 -10 -9 -10 -10 -11 -11 -11 -11 -11 -12 -12
-13 -13 -13 -12 -13 -13 -13 -13 -13 -13 -13 -13 -13 -12 -12 -12 -12 -12 -12 -12 -13 -13 -13 -13 -12 -12 -12 -13 -12 -11 -11 -12 -12 -11 -10 -10 -9 -10 -11 -11 -12 -11 -12 -12 -12
-14 -14 -13 -13 -13 -14 -14 -14 -13 -13 -13 -13 -13 -13 -13 -13 -13 -13 -13 -13 -12 -13 -13 -13 -13 -13 -12 -12 -12 -11 -11 -11 -12 -11 -11 -11 -11 -11 -10 -11 -11 -11 -12 -12 -11

GFSSW_500_temp_291.txt.gz
Temp
-7 -7 -7 -7 -7 -6 -6 -7 -6 -6 -6 -6 -6 -6 -6 -6 -6 -6 -6 -7 -7 -7 -7 -8 -8 -8 -8 -8 -9 -10 -10 -10 -11 -10 -10 -10 -10 -9 -9 -8 -8 -8 -8 -8 -8
-7 -7 -7 -7 -7 -7 -7 -7 -7 -6 -6 -6 -6 -6 -6 -6 -7 -6 -6 -7 -7 -7 -7 -8 -8 -8 -8 -8 -8 -9 -10 -10 -11 -10 -10 -10 -10 -9 -9 -9 -9 -9 -9 -8 -8
-7 -7 -7 -7 -7 -7 -7 -7 -7 -7 -7 -7 -7 -7 -7 -7 -7 -7 -7 -7 -7 -7 -8 -8 -8 -8 -8 -8 -8 -9 -10 -10 -11 -11 -11 -10 -10 -9 -9 -9 -9 -9 -9 -9 -9
-7 -7 -7 -7 -7 -7 -7 -7 -7 -7 -7 -7 -7 -7 -7 -6 -6 -7 -7 -7 -7 -7 -7 -8 -8 -8 -8 -8 -8 -8 -10 -10 -10 -11 -11 -11 -10 -10 -9 -9 -9 -9 -9 -9 -9
-7 -7 -7 -7 -7 -7 -7 -7 -7 -7 -7 -7 -7 -7 -7 -7 -6 -7 -7 -7 -7 -7 -7 -8 -8 -8 -8 -8 -8 -8 -9 -10 -10 -11 -11 -11 -10 -10 -10 -9 -9 -9 -9 -10 -10
-8 -8 -8 -8 -8 -7 -7 -7 -7 -7 -7 -7 -7 -7 -7 -7 -6 -7 -7 -7 -7 -7 -7 -7 -8 -8 -8 -8 -8 -8 -8 -9 -10 -11 -11 -10 -10 -10 -10 -10 -9 -9 -9 -10 -10
-8 -8 -8 -8 -8 -8 -8 -7 -7 -7 -7 -7 -7 -7 -7 -6 -7 -7 -7 -7 -7 -7 -7 -7 -7 -8 -8 -8 -8 -8 -9 -9 -10 -11 -11 -11 -10 -10 -10 -10 -10 -10 -9 -10 -10
-8 -8 -8 -8 -8 -8 -8 -8 -8 -7 -7 -7 -7 -7 -7 -7 -7 -7 -7 -7 -7 -6 -7 -7 -7 -7 -8 -8 -8 -8 -9 -9 -10 -10 -11 -11 -10 -11 -10 -10 -10 -10 -9 -10 -10
-9 -8 -8 -8 -8 -8 -8 -8 -8 -8 -8 -8 -8 -7 -7 -7 -7 -7 -7 -7 -7 -7 -7 -7 -7 -7 -8 -8 -9 -9 -9 -9 -10 -10 -10 -10 -10 -11 -11 -10 -10 -10 -9 -9 -10
-9 -9 -9 -9 -8 -8 -8 -8 -8 -8 -8 -8 -8 -8 -8 -7 -7 -7 -7 -7 -7 -7 -7 -7 -7 -7 -8 -8 -9 -8 -9 -9 -9 -9 -10 -9 -9 -10 -10 -9 -10 -9 -9 -9 -10
-9 -9 -9 -9 -9 -9 -9 -8 -9 -9 -9 -8 -8 -8 -8 -8 -8 -7 -7 -7 -7 -7 -7 -7 -8 -8 -8 -8 -8 -8 -8 -9 -9 -9 -9 -9 -8 -8 -9 -10 -10 -9 -9 -9 -10
-9 -9 -8 -9 -9 -9 -9 -9 -9 -9 -9 -9 -9 -9 -8 -8 -8 -8 -8 -7 -8 -8 -7 -7 -8 -8 -8 -8 -8 -8 -8 -9 -9 -9 -8 -8 -8 -8 -9 -10 -10 -9 -8 -9 -9
-9 -8 -8 -8 -8 -8 -8 -9 -9 -9 -9 -9 -9 -9 -8 -9 -9 -8 -8 -8 -8 -8 -8 -7 -8 -9 -9 -8 -8 -8 -8 -9 -9 -9 -8 -8 -8 -9 -10 -10 -10 -10 -9 -10 -9
-8 -8 -8 -8 -8 -8 -8 -9 -9 -9 -9 -9 -9 -9 -9 -9 -9 -9 -9 -8 -8 -8 -8 -8 -8 -8 -8 -9 -8 -9 -9 -9 -9 -8 -9 -8 -9 -9 -10 -10 -10 -10 -10 -9 -9
-8 -8 -8 -8 -8 -8 -8 -8 -9 -9 -9 -9 -9 -9 -9 -9 -9 -9 -9 -9 -9 -9 -8 -8 -9 -8 -8 -9 -8 -9 -9 -9 -9 -9 -9 -9 -9 -9 -10 -10 -10 -9 -9 -9 -9
-8 -8 -8 -8 -8 -8 -8 -8 -9 -9 -9 -9 -9 -9 -9 -10 -9 -9 -9 -9 -9 -9 -9 -9 -8 -8 -8 -9 -9 -9 -9 -9 -9 -9 -8 -9 -9 -8 -9 -9 -10 -10 -9 -9 -10
-9 -9 -9 -8 -9 -9 -9 -9 -9 -9 -10 -9 -9 -9 -10 -10 -10 -10 -10 -10 -10 -9 -9 -9 -9 -9 -9 -9 -9 -9 -9 -9 -9 -9 -9 -9 -9 -9 -9 -9 -10 -10 -9 -9 -9
-9 -9 -9 -9 -9 -9 -9 -9 -9 -9 -10 -10 -10 -10 -10 -10 -10 -11 -11 -10 -10 -10 -10 -9 -10 -9 -9 -9 -10 -10 -10 -10 -10 -9 -9 -9 -9 -9 -9 -9 -9 -9 -9 -9 -9
-10 -10 -10 -10 -10 -10 -9 -9 -9 -10 -10 -10 -10 -10 -10 -10 -10 -10 -11 -11 -11 -10 -10 -10 -10 -9 -9 -9 -9 -10 -10 -10 -10 -10 -9 -9 -9 -9 -9 -10 -9 -9 -9 -9 -9
-10 -10 -10 -10 -10 -10 -10 -10 -10 -10 -10 -10 -10 -10 -10 -10 -10 -11 -11 -11 -11 -11 -11 -10 -10 -10 -10 -10 -10 -9 -9 -10 -10 -9 -9 -9 -9 -9 -10 -10 -10 -9 -9 -9 -9
-11 -10 -10 -11 -11 -10 -10 -10 -10 -10 -10 -10 -11 -10 -10 -10 -11 -11 -11 -10 -11 -11 -11 -11 -11 -11 -11 -10 -11 -10 -10 -10 -10 -10 -9 -9 -8 -9 -10 -10 -10 -10 -10 -10 -10
-11 -11 -11 -11 -11 -11 -11 -11 -11 -11 -11 -11 -11 -11 -11 -11 -11 -11 -11 -11 -11 -11 -11 -11 -11 -11 -12 -12 -11 -11 -11 -10 -11 -10 -10 -9 -8 -9 -10 -11 -11 -11 -11 -11 -10
-11 -11 -11 -11 -11 -11 -11 -11 -11 -11 -11 -11 -11 -11 -11 -11 -11 -11 -11 -11 -11 -11 -11 -11 -11 -12 -12 -12 -12 -11 -11 -11 -11 -11 -10 -10 -9 -9 -10 -11 -11 -12 -11 -11 -11
-12 -11 -11 -11 -11 -11 -11 -11 -12 -12 -12 -11 -11 -11 -11 -12 -12 -12 -12 -12 -12 -12 -11 -11 -11 -11 -12 -12 -12 -13 -12 -12 -11 -11 -11 -10 -10 -10 -10 -11 -11 -12 -12 -11 -11
-12 -12 -12 -11 -11 -12 -12 -11 -12 -12 -12 -12 -12 -12 -12 -12 -12 -12 -12 -13 -13 -12 -12 -12 -12 -11 -11 -12 -12 -12 -12 -12 -11 -12 -11 -11 -10 -10 -11 -11 -11 -12 -12 -11 -11
-14 -13 -13 -12 -12 -12 -12 -12 -12 -12 -12 -12 -12 -12 -12 -12 -12 -12 -12 -12 -13 -13 -13 -12 -12 -11 -12 -12 -12 -11 -11 -12 -12 -13 -12 -12 -10 -11 -11 -11 -11 -12 -12 -12 -12
-15 -14 -14 -13 -13 -13 -13 -13 -13 -13 -13 -13 -13 -13 -13 -13 -13 -13 -12 -12 -12 -13 -13 -13 -12 -12 -11 -12 -12 -11 -11 -12 -12 -12 -12 -12 -11 -12 -11 -11 -12 -12 -12 -12 -12

GFSSW_500_temp_297.txt.gz
Temp
-6 -6 -6 -6 -6 -6 -6 -6 -6 -6 -6 -6 -6 -6 -6 -6 -6 -6 -6 -6 -6 -6 -6 -7 -7 -7 -7 -7 -8 -9 -10 -10 -9 -9 -9 -10 -10 -10 -9 -9 -9 -9 -8 -9 -9
-6 -6 -6 -6 -6 -6 -6 -6 -6 -6 -6 -6 -6 -6 -6 -6 -6 -6 -6 -6 -6 -6 -6 -7 -7 -7 -7 -8 -8 -8 -10 -10 -9 -9 -9 -9 -10 -10 -9 -9 -9 -9 -9 -9 -9
-7 -7 -6 -6 -6 -6 -6 -6 -6 -6 -6 -6 -6 -6 -6 -6 -6 -6 -6 -6 -6 -6 -6 -7 -7 -7 -7 -8 -8 -8 -8 -10 -10 -10 -10 -10 -10 -10 -9 -10 -8 -9 -9 -9 -9
-7 -7 -6 -6 -6 -6 -6 -6 -6 -6 -6 -6 -6 -6 -6 -6 -6 -6 -6 -6 -6 -6 -6 -7 -7 -7 -8 -8 -8 -8 -8 -10 -10 -10 -11 -10 -10 -10 -10 -10 -9 -9 -9 -9 -9
-7 -7 -7 -7 -7 -7 -6 -7 -7 -7 -7 -7 -7 -6 -6 -6 -6 -6 -6 -6 -6 -6 -6 -7 -7 -7 -8 -8 -8 -8 -9 -9 -9 -9 -11 -11 -10 -10 -10 -10 -10 -10 -10 -10 -10
-8 -7 -7 -7 -7 -7 -7 -7 -7 -7 -7 -7 -7 -7 -6 -6 -7 -7 -6 -6 -6 -6 -6 -6 -7 -7 -8 -8 -8 -8 -9 -9 -9 -10 -11 -11 -11 -10 -10 -10 -10 -10 -10 -10 -10
-8 -8 -8 -8 -8 -8 -7 -7 -7 -7 -7 -7 -7 -7 -7 -6 -7 -7 -7 -7 -6 -6 -6 -6 -7 -7 -8 -8 -8 -8 -9 -8 -8 -9 -10 -11 -10 -10 -10 -10 -10 -10 -10 -10 -10
-8 -8 -8 -8 -8 -8 -8 -7 -7 -7 -7 -7 -7 -7 -7 -7 -7 -7 -7 -7 -7 -7 -7 -7 -7 -7 -7 -8 -8 -8 -8 -8 -10 -9 -11 -9 -10 -10 -10 -10 -10 -10 -10 -10 -10
-8 -8 -8 -8 -8 -8 -8 -8 -8 -7 -7 -7 -7 -7 -7 -7 -7 -7 -7 -7 -7 -7 -7 -7 -7 -7 -7 -8 -8 -8 -9 -9 -10 -10 -10 -9 -10 -10 -10 -10 -10 -10 -10 -10 -10
-8 -8 -8 -8 -8 -8 -8 -8 -8 -8 -8 -8 -7 -7 -7 -7 -7 -7 -7 -7 -7 -7 -7 -7 -7 -7 -7 -8 -9 -10 -10 -10 -10 -10 -10 -10 -10 -10 -10 -10 -10 -10 -10 -10 -11
-8 -8 -8 -8 -8 -8 -8 -8 -8 -8 -8 -8 -8 -8 -7 -7 -7 -7 -7 -7 -7 -7 -7 -7 -7 -8 -8 -8 -8 -8 -8 -8 -10 -10 -9 -8 -9 -10 -10 -10 -10 -10 -10 -10 -10
-8 -8 -8 -8 -8 -8 -8 -8 -8 -8 -8 -8 -8 -8 -8 -8 -8 -8 -8 -7 -8 -8 -7 -7 -7 -8 -8 -7 -8 -8 -8 -8 -9 -9 -8 -8 -8 -8 -10 -10 -10 -10 -10 -10 -10
-8 -8 -8 -8 -8 -8 -8 -8 -8 -8 -8 -8 -8 -8 -8 -8 -8 -8 -8 -8 -8 -8 -8 -8 -9 -8 -8 -8 -8 -8 -8 -8 -9 -9 -8 -8 -8 -8 -8 -10 -10 -9 -9 -9 -9
-8 -8 -8 -8 -8 -8 -8 -8 -8 -8 -8 -8 -8 -8 -8 -8 -8 -8 -9 -8 -8 -8 -8 -8 -9 -8 -8 -8 -8 -9 -9 -8 -8 -8 -9 -10 -9 -9 -9 -10 -10 -10 -9 -10 -10
-8 -8 -8 -8 -8 -8 -8 -8 -8 -8 -9 -8 -8 -8 -8 -8 -9 -9 -9 -9 -9 -9 -9 -9 -9 -9 -9 -9 -8 -9 -9 -8 -8 -8 -8 -9 -10 -9 -9 -10 -10 -10 -10 -10 -10
-8 -8 -8 -8 -8 -8 -8 -8 -8 -8 -8 -8 -8 -8 -8 -8 -9 -9 -9 -9 -9 -9 -9 -9 -9 -9 -9 -9 -9 -9 -9 -9 -9 -9 -8 -9 -9 -9 -9 -9 -9 -10 -10 -10 -10
-9 -8 -8 -8 -8 -8 -8 -8 -8 -9 -8 -8 -8 -8 -9 -9 -9 -9 -9 -10 -10 -10 -10 -10 -9 -9 -9 -9 -9 -9 -9 -9 -10 -10 -9 -10 -10 -9 -9 -10 -10 -10 -10 -10 -10
-9 -9 -9 -8 -8 -8 -8 -9 -9 -9 -8 -9 -9 -9 -9 -9 -9 -9 -9 -10 -10 -10 -10 -12 -11 -10 -9 -9 -10 -9 -9 -10 -11 -9 -9 -9 -10 -10 -10 -10 -10 -9 -9 -9 -9
-9 -9 -9 -9 -9 -9 -9 -9 -9 -9 -9 -9 -9 -9 -9 -9 -9 -10 -10 -10 -11 -10 -10 -12 -11 -10 -10 -10 -10 -10 -11 -11 -11 -9 -10 -10 -9 -10 -10 -10 -9 -10 -11 -9 -9
-10 -9 -9 -9 -9 -9 -9 -10 -9 -9 -9 -9 -9 -9 -10 -9 -9 -10 -11 -9 -10 -10 -10 -11 -11 -11 -10 -10 -10 -10 -11 -11 -10 -10 -11 -10 -10 -10 -10 -11 -11 -11 -11 -11 -9
-10 -10 -10 -10 -9 -9 -10 -10 -9 -10 -10 -10 -9 -9 -10 -10 -10 -10 -11 -9 -10 -10 -10 -11 -11 -11 -11 -10 -11 -11 -10 -10 -11 -11 -11 -10 -10 -10 -11 -11 -11 -11 -12 -12 -11
-11 -10 -10 -10 -10 -10 -10 -9 -9 -10 -10 -10 -10 -10 -10 -10 -10 -10 -10 -9 -10 -10 -11 -10 -10 -11 -11 -12 -13 -11 -11 -12 -12 -12 -11 -11 -11 -11 -11 -11 -11 -11 -12 -12 -11
-11 -11 -11 -10 -10 -10 -10 -10 -10 -10 -10 -10 -10 -10 -10 -10 -10 -10 -10 -10 -10 -10 -10 -10 -11 -11 -11 -11 -11 -11 -11 -11 -11 -11 -11 -12 -11 -12 -12 -12 -11 -11 -11 -12 -12
-12 -11 -12 -11 -11 -11 -11 -11 -10 -10 -10 -10 -10 -10 -11 -11 -11 -11 -10 -10 -11 -10 -11 -11 -11 -11 -11 -12 -12 -12 -12 -11 -13 -13 -12 -12 -12 -12 -12 -12 -12 -11 -11 -11 -12
-12 -12 -12 -12 -12 -12 -11 -11 -11 -11 -11 -11 -11 -11 -11 -11 -11 -11 -11 -11 -11 -11 -11 -11 -11 -11 -11 -11 -12 -11 -11 -11 -13 -13 -13 -13 -13 -12 -12 -11 -11 -11 -11 -11 -11
-12 -12 -12 -12 -12 -12 -12 -12 -12 -12 -11 -11 -11 -11 -11 -11 -11 -12 -11 -11 -11 -11 -11 -11 -11 -11 -11 -11 -11 -11 -11 -12 -11 -11 -11 -13 -12 -12 -11 -11 -12 -13 -11 -12 -12
-13 -13 -13 -12 -13 -13 -12 -13 -13 -12 -12 -12 -11 -12 -12 -11 -11 -12 -12 -12 -12 -12 -12 -12 -12 -12 -11 -11 -11 -10 -11 -11 -12 -12 -12 -12 -12 -13 -13 -13 -13 -12 -11 -11 -12